Temperature
16 14 14 14 14 15 16 16 15 15 16 16 15 15 15 16 15 15 15 15 15 15 15 15 15 15 15 14 14 14 13 13 12 11 11 10 10 10 10 9 9 9 9 8
14 13 15 15 15 15 15 15 15 15 16 16 15 14 15 14 14 15 15 14 15 14 14 14 14 14 14 14 14 13 13 13 12 12 11 11 10 10 10 10 9 9 9 9
14 15 16 15 15 16 16 15 15 15 16 15 15 14 14 14 15 15 15 15 15 15 15 14 14 14 14 14 14 13 13 13 12 12 11 11 10 10 10 10 9 9 9 8
13 14 16 16 16 16 15 16 15 15 15 13 15 13 14 14 14 12 12 13 14 14 14 14 14 13 13 13 13 13 13 13 12 12 11 11 11 10 10 9 9 9 8 8
14 15 15 15 15 15 15 16 16 16 15 13 13 13 13 13 13 12 11 12 13 14 14 14 14 13 13 13 13 13 12 12 12 12 11 11 11 10 10 9 8 8 8 7
14 16 16 15 16 16 15 15 14 11 11 12 12 11 13 12 13 12 11 12 13 13 13 13 13 13 12 12 12 12 12 12 12 11 11 11 10 10 9 9 8 8 7 7
15 15 15 15 15 15 15 13 12 12 11 11 12 12 13 14 13 13 12 12 13 13 13 13 13 12 12 12 12 12 11 11 11 11 11 10 10 10 9 9 8 8 7 7
13 13 14 14 14 13 13 13 12 12 12 12 13 12 14 15 14 15 14 13 13 13 13 13 13 13 12 12 12 11 11 11 11 11 10 10 10 9 9 8 8 7 7 7
12 13 14 14 14 13 12 12 12 12 12 12 12 13 14 15 14 13 12 12 12 13 13 13 13 13 12 12 11 11 11 11 10 10 10 10 9 9 8 8 7 7 6 6
13 13 14 14 14 14 13 12 11 11 12 12 12 13 14 15 15 12 10 11 12 13 13 13 13 13 12 12 11 11 10 10 10 10 9 9 9 8 8 7 7 6 6 6
13 13 13 13 13 12 13 13 12 11 10 11 12 13 14 15 14 12 11 12 13 13 13 13 13 13 12 12 11 10 10 10 9 9 9 9 8 8 7 7 6 6 5 5
12 11 11 12 12 12 12 12 11 11 12 10 10 12 14 14 14 13 13 13 14 14 14 14 13 12 12 11 11 10 10 9 9 9 8 8 7 7 7 6 6 5 5 5
12 11 11 12 12 12 12 12 12 12 11 10 10 13 14 14 14 14 14 14 14 14 14 13 13 12 12 11 10 10 9 9 9 8 8 7 7 6 6 6 5 5 4 4
13 11 12 12 12 12 12 12 12 12 11 10 11 13 14 14 14 14 15 15 15 15 14 13 13 12 11 11 10 10 9 9 8 8 7 7 6 6 5 5 5 4 4 4
12 12 12 12 13 12 12 13 12 12 12 12 12 12 14 14 13 14 15 15 15 14 14 13 13 12 11 10 10 9 9 8 8 7 7 6 6 5 5 4 4 4 3 3
11 12 12 13 13 13 13 13 12 12 12 12 12 12 13 14 14 14 14 14 14 14 14 13 13 12 11 10 9 9 8 8 7 6 6 5 5 5 4 4 3 3 3 2
10 11 11 11 13 13 12 13 13 12 12 12 12 13 13 13 12 13 14 14 14 14 13 13 12 11 11 10 9 8 8 7 6 6 5 5 4 4 4 3 3 3 2 2
10 10 9 10 11 11 12 13 13 13 13 12 12 12 12 12 13 13 14 14 14 13 13 12 11 11 10 9 8 8 7 6 6 5 5 4 4 4 3 3 2 2 1 1
10 10 9 8 9 10 11 13 13 12 12 12 12 11 11 11 11 11 13 13 13 13 12 12 11 10 9 8 8 7 6 6 5 5 4 4 3 3 3 2 2 1 1 0
9 9 8 7 9 10 12 13 14 13 12 12 11 10 9 10 9 10 12 12 12 12 11 10 10 9 8 8 7 6 6 5 5 4 4 3 3 2 2 2 1 1 0 -0
9 8 8 7 8 9 11 12 13 12 12 13 12 12 10 10 11 12 12 11 11 10 10 9 9 8 7 7 6 6 5 5 4 4 3 3 2 2 1 1 0 0 -0 -1
9 7 7 7 8 9 11 10 11 12 12 13 13 13 12 12 12 12 11 10 10 9 9 8 7 7 6 6 5 5 4 4 3 3 3 2 2 1 1 0 -0 -0 -1 -1
8 9 9 9 10 11 12 12 13 13 13 13 13 13 12 12 11 11 10 9 9 8 8 7 7 6 6 5 4 4 4 3 3 2 2 2 1 1 0 -0 -1 -1 -1 -2
7 8 8 8 8 10 11 12 13 13 13 13 12 12 12 11 11 10 9 8 8 7 7 6 6 5 5 4 4 3 3 2 2 2 2 1 1 0 -0 -1 -1 -2 -2 -3
8 7 8 8 9 10 11 12 12 12 12 12 11 11 11 10 10 9 8 7 7 6 6 5 5 4 4 3 3 3 2 2 1 1 1 0 -0 -1 -1 -1 -2 -2 -3 -4
7 8 8 9 10 9 11 12 12 12 11 11 11 10 10 9 9 8 7 7 6 5 5 4 4 3 3 3 3 2 2 1 1 0 0 -0 -1 -1 -2 -2 -2 -3 -4 -4
Wind_Speed
3 4 5 9 10 8 4 5 7 7 6 6 10 12 13 10 8 9 9 9 9 7 4 4 5 6 7 7 8 8 8 7 7 4 4 4 3 2 2 2 2 2 1 1
3 6 11 8 6 6 6 6 7 7 3 4 8 13 13 11 10 12 14 13 11 8 6 5 5 5 6 6 7 8 8 7 7 5 4 3 3 2 1 1 1 1 1 1
10 7 6 7 7 7 6 6 6 6 5 5 5 9 8 6 6 7 10 11 11 12 11 8 7 6 6 7 7 7 8 8 7 6 5 5 4 3 2 2 1 2 1 1
8 8 5 6 7 7 6 6 6 4 1 5 1 6 9 6 4 6 9 10 11 10 9 9 8 7 7 6 6 7 7 7 7 7 6 6 4 3 2 1 0 2 3 1
8 6 8 9 8 9 7 4 2 1 2 4 3 4 9 3 6 9 11 12 12 11 12 11 9 8 7 6 6 7 7 7 6 6 7 7 4 3 2 1 2 2 3 3
8 5 7 9 4 5 5 4 6 5 4 4 6 7 8 6 9 8 11 12 12 12 11 10 9 8 6 6 6 7 8 6 6 7 7 7 7 5 4 2 1 1 2 2
4 4 4 5 5 3 5 5 3 3 1 7 4 6 10 9 8 10 15 16 13 13 12 12 11 10 9 8 8 7 8 6 6 7 6 6 7 6 5 3 1 0 1 2
8 7 7 7 9 9 7 9 7 6 5 5 3 7 8 6 6 6 10 12 13 13 13 13 13 12 10 10 9 8 8 7 6 6 6 5 6 4 3 3 2 2 2 3
10 8 2 4 5 11 7 7 8 5 2 4 7 8 9 3 4 3 9 12 15 15 14 14 13 12 12 11 10 9 9 7 7 7 6 5 5 4 3 2 1 1 2 2
10 6 2 0 5 3 7 7 5 5 5 5 7 6 5 6 5 4 9 13 14 13 13 13 13 13 12 11 9 9 9 8 7 7 6 5 4 4 3 2 1 2 3 3
8 7 2 1 8 9 6 5 5 5 5 6 4 7 6 6 6 9 12 13 15 16 16 15 13 12 11 10 9 9 9 7 7 7 5 5 4 3 2 1 2 3 3 3
8 6 5 8 6 6 8 9 8 6 6 5 4 7 6 5 5 8 10 11 12 14 14 13 12 11 11 11 10 10 9 8 7 6 6 5 3 2 1 2 3 3 4 4
10 8 4 2 2 3 6 7 8 5 4 5 5 7 4 3 2 4 7 9 10 11 11 10 11 12 13 12 11 10 9 8 7 6 6 4 3 2 3 4 4 5 5 6
9 7 8 11 7 8 7 8 9 8 6 6 9 9 7 6 6 6 7 8 9 10 11 11 12 11 11 11 11 10 9 8 7 6 6 4 4 4 5 5 5 6 6 7
8 7 7 7 5 6 8 8 10 12 11 10 9 10 11 9 8 8 6 6 7 8 10 12 12 11 10 10 9 9 8 7 7 6 5 5 5 4 5 5 6 7 7 8
5 7 6 5 6 7 6 8 10 11 10 11 10 11 10 6 4 5 5 6 8 9 10 10 11 12 12 12 10 9 8 7 6 6 5 4 4 5 6 7 7 7 8 8
7 7 6 4 3 2 7 10 11 8 8 10 13 15 7 5 7 7 7 7 8 8 8 10 11 12 12 11 10 10 8 6 6 5 4 4 5 5 7 7 7 8 8 8
9 8 5 4 4 7 9 5 8 9 10 10 9 7 6 8 4 2 4 6 7 7 8 9 9 9 8 8 8 8 7 6 5 4 4 4 5 6 7 7 8 9 8 8
5 8 5 5 5 7 8 6 6 8 8 7 9 7 3 4 4 3 2 4 5 6 6 7 8 8 8 8 8 8 6 5 4 4 5 5 6 7 7 8 9 8 8 9
4 5 6 5 5 8 9 5 3 4 7 6 7 8 7 7 3 5 3 3 4 6 6 7 8 7 8 7 7 7 5 4 4 5 6 6 6 7 8 9 9 8 8 9
4 3 6 6 7 8 9 3 6 6 8 4 7 8 10 8 6 4 5 5 5 6 7 8 9 8 7 6 7 6 4 5 5 5 5 6 6 7 8 8 7 8 8 9
10 8 7 7 6 10 6 8 9 9 3 5 6 7 8 6 4 6 6 7 8 7 7 8 8 6 5 5 6 4 4 5 4 5 6 7 7 7 6 7 8 8 8 9
9 11 8 10 10 6 7 9 6 6 6 6 6 6 7 7 6 7 6 7 7 7 7 5 7 6 3 3 4 4 4 4 4 5 6 7 7 7 7 7 9 8 8 8
6 4 6 5 8 6 6 5 5 6 6 6 6 7 8 7 7 7 7 7 6 5 5 5 6 5 3 2 3 4 4 4 4 6 7 7 7 8 7 6 7 7 8 8
9 9 6 6 5 2 4 7 7 5 5 6 5 6 7 8 7 8 7 7 6 5 4 4 5 4 3 3 3 4 4 4 5 7 7 7 7 7 8 7 7 9 8 10
6 8 9 8 9 8 8 7 9 8 7 8 7 5 4 6 7 7 6 6 6 5 4 4 3 3 3 3 5 5 5 4 5 7 7 6 6 7 7 8 10 14 15 21
Wind_Direction
147 115 205 216 208 211 219 244 267 264 253 202 232 253 259 243 221 212 200 189 183 175 160 108 89 96 100 105 115 122 123 128 129 124 123 118 114 96 81 101 116 115 143 192
96 231 229 216 209 211 228 255 271 284 289 226 256 264 260 240 218 205 195 188 181 168 156 132 111 102 110 120 120 120 124 127 128 129 130 128 125 112 96 47 51 59 151 175
190 226 224 201 209 215 231 229 244 264 312 317 301 294 279 265 221 198 189 183 178 172 166 156 139 127 124 131 136 132 130 127 124 123 112 91 74 57 40 21 353 342 329 200
220 238 215 201 209 192 243 234 221 239 288 290 316 294 286 268 241 202 188 181 182 174 164 158 153 149 148 151 140 130 129 126 126 126 128 133 139 151 186 191 322 350 13 16
227 206 192 207 215 187 216 215 188 195 188 294 258 229 282 269 240 227 203 192 186 177 168 163 161 158 153 149 142 135 127 124 125 123 129 127 127 142 130 89 55 17 6 10
223 217 196 199 184 176 158 76 42 46 77 281 228 192 274 238 222 219 202 195 187 176 167 159 153 145 143 144 141 139 135 133 132 129 132 136 140 140 127 105 69 9 349 347
246 253 219 150 127 118 121 102 358 327 340 250 217 200 251 253 234 209 196 191 184 175 167 163 161 161 160 160 159 154 148 146 144 138 140 145 147 146 149 155 161 225 319 308
199 247 218 191 177 176 180 159 182 217 231 275 255 223 253 270 283 224 186 174 171 175 175 174 174 171 169 170 168 164 161 158 156 149 148 148 147 146 157 169 180 212 238 259
187 230 262 202 180 149 158 196 181 155 236 265 274 278 300 283 357 114 151 161 178 183 182 180 178 176 174 174 176 173 168 163 163 159 153 153 154 154 165 175 188 237 259 268
166 207 248 205 110 145 161 163 134 161 194 240 276 272 260 277 255 183 178 184 188 187 187 185 183 182 180 177 173 170 168 168 166 163 163 160 162 166 169 171 243 275 284 290
159 172 212 167 189 189 167 182 177 172 177 179 251 270 234 245 231 208 204 198 192 192 192 191 188 184 178 170 167 168 168 162 163 164 159 154 163 167 166 204 260 274 281 291
160 145 196 234 240 198 187 190 166 177 221 193 198 267 276 276 249 212 212 208 202 199 196 191 183 175 174 172 170 169 169 167 169 166 160 165 171 173 201 254 269 272 279 281
156 145 145 332 284 207 208 205 191 169 146 172 188 260 300 324 305 227 219 216 206 199 193 184 178 180 180 176 172 169 170 170 168 163 163 170 187 208 238 257 268 273 276 283
143 144 176 195 209 188 203 209 187 173 197 219 223 248 281 277 266 252 232 218 205 199 192 186 185 183 179 174 171 169 171 170 167 165 169 187 212 227 242 255 265 270 272 278
134 170 197 218 221 177 201 204 190 199 206 210 232 233 249 246 239 238 233 215 197 197 192 189 186 180 173 169 169 168 170 170 166 168 183 210 227 238 250 261 268 272 274 274
128 163 178 213 218 208 226 224 207 215 220 229 249 260 248 245 217 216 213 201 202 204 198 190 180 174 174 172 169 166 169 171 165 175 201 223 238 251 259 265 270 274 276 276
149 146 155 212 214 165 246 224 208 210 212 201 229 246 234 216 217 217 213 204 208 207 194 185 180 178 174 170 165 168 169 163 166 185 212 232 244 258 265 270 274 275 276 275
145 144 146 163 144 220 240 235 205 215 237 219 228 243 220 212 205 202 196 197 209 203 190 180 169 161 157 154 153 152 152 158 171 197 228 244 251 262 271 275 275 275 273 274
142 142 139 151 199 261 286 251 195 203 253 229 223 229 184 124 84 328 271 203 200 190 172 162 155 148 143 147 148 143 149 158 180 219 241 251 254 263 272 275 276 277 278 278
76 116 133 148 179 224 239 227 180 147 262 241 191 184 162 134 152 251 217 154 138 132 132 132 129 125 133 142 139 140 155 173 215 236 248 256 257 261 268 272 276 277 277 279
139 138 163 175 209 248 246 206 122 176 240 199 168 169 167 182 198 190 141 129 131 125 124 124 123 128 140 143 137 147 170 212 234 247 259 265 266 266 269 273 275 281 283 286
172 174 186 168 197 247 219 148 183 211 170 151 157 166 175 184 148 142 145 141 135 126 123 125 124 127 136 142 143 164 212 236 250 260 268 272 274 276 280 278 282 283 286 290
193 189 184 189 210 233 186 193 198 160 160 168 164 168 161 161 170 165 159 152 144 137 134 128 132 133 142 155 158 193 237 252 263 270 273 276 279 277 276 278 285 290 288 288
232 173 159 215 249 239 214 198 174 172 170 171 165 160 162 172 174 168 160 156 150 142 140 133 136 146 172 195 205 226 252 262 265 272 277 279 281 284 283 279 278 283 285 287
199 170 177 217 246 198 219 202 185 166 149 143 145 162 171 167 170 170 166 163 157 148 144 145 155 175 205 229 250 258 265 271 274 276 278 281 278 280 286 282 275 281 271 276
188 172 176 210 206 185 211 202 176 167 174 168 157 152 153 164 166 158 157 156 152 150 147 151 168 196 229 251 268 276 277 272 273 280 281 279 280 283 284 290 295 289 289 294
Height
1532 1537 1540 1537 1537 1537 1537 1538 1539 1534 1526 1527 1528 1525 1519 1516 1517 1517 1517 1517 1519 1520 1521 1522 1522 1524 1526 1528 1531 1533 1535 1538 1540 1542 1544 1546 1547 1548 1548 1549 1549 1548 1548 1547
1535 1537 1530 1529 1532 1534 1535 1537 1536 1531 1525 1525 1525 1522 1514 1510 1510 1509 1510 1512 1515 1517 1519 1520 1521 1523 1525 1527 1529 1532 1534 1536 1538 1540 1542 1544 1545 1546 1546 1546 1546 1546 1545 1544
1533 1528 1524 1528 1531 1533 1533 1534 1533 1532 1526 1524 1525 1523 1513 1505 1504 1505 1506 1508 1511 1513 1515 1517 1520 1522 1524 1526 1528 1531 1533 1535 1537 1539 1541 1542 1543 1544 1544 1544 1544 1544 1543 1542
1528 1523 1523 1525 1527 1528 1534 1527 1528 1529 1533 1537 1530 1537 1515 1507 1504 1503 1504 1505 1508 1511 1514 1516 1518 1520 1523 1526 1528 1530 1532 1534 1536 1538 1539 1541 1541 1542 1542 1542 1542 1541 1541 1540
1523 1519 1521 1524 1523 1524 1526 1523 1525 1526 1531 1536 1534 1536 1518 1508 1506 1502 1501 1502 1505 1508 1511 1514 1517 1520 1522 1525 1527 1530 1532 1534 1535 1537 1539 1540 1540 1541 1540 1540 1540 1539 1539 1538
1517 1514 1515 1516 1517 1519 1521 1525 1530 1536 1539 1544 1534 1538 1523 1509 1500 1496 1497 1499 1502 1506 1510 1513 1516 1519 1522 1524 1527 1529 1531 1533 1535 1536 1537 1538 1539 1539 1539 1538 1538 1537 1536 1535
1517 1514 1512 1513 1518 1520 1523 1534 1545 1544 1550 1544 1528 1530 1516 1495 1491 1490 1491 1494 1499 1503 1507 1510 1514 1517 1520 1523 1525 1528 1530 1532 1534 1535 1536 1537 1537 1537 1536 1536 1535 1535 1534 1533
1523 1522 1512 1510 1513 1520 1524 1529 1543 1546 1545 1536 1522 1525 1503 1489 1486 1485 1487 1491 1497 1501 1505 1508 1511 1515 1518 1521 1524 1526 1529 1531 1532 1533 1534 1535 1535 1535 1534 1533 1533 1532 1531 1530
1517 1518 1507 1506 1506 1512 1522 1526 1525 1535 1534 1536 1526 1513 1497 1487 1486 1486 1488 1491 1495 1498 1502 1506 1509 1513 1516 1519 1522 1525 1527 1529 1530 1532 1532 1533 1533 1532 1532 1531 1530 1529 1528 1527
1505 1514 1508 1506 1507 1509 1512 1517 1528 1533 1539 1539 1527 1515 1505 1490 1487 1488 1489 1490 1492 1496 1500 1503 1507 1510 1513 1517 1520 1523 1525 1527 1528 1529 1530 1530 1530 1530 1529 1528 1527 1526 1525 1523
1499 1509 1511 1509 1509 1511 1513 1516 1519 1526 1530 1535 1531 1516 1492 1487 1485 1486 1486 1487 1489 1492 1496 1499 1503 1507 1511 1514 1517 1520 1522 1524 1526 1527 1527 1528 1527 1527 1526 1525 1524 1523 1521 1519
1495 1506 1513 1509 1504 1503 1506 1508 1515 1523 1523 1525 1528 1515 1485 1484 1483 1483 1484 1485 1487 1490 1493 1496 1500 1504 1507 1510 1513 1516 1519 1521 1523 1524 1525 1525 1524 1524 1523 1522 1521 1519 1517 1515
1490 1502 1513 1512 1510 1505 1505 1504 1505 1510 1515 1523 1525 1509 1485 1483 1482 1482 1483 1484 1486 1488 1491 1494 1497 1500 1503 1506 1509 1513 1515 1518 1520 1521 1521 1521 1521 1520 1520 1519 1517 1515 1512 1510
1480 1494 1500 1505 1501 1498 1500 1498 1500 1506 1514 1515 1511 1500 1488 1484 1483 1482 1482 1482 1483 1485 1487 1490 1492 1495 1499 1503 1506 1509 1512 1515 1516 1517 1518 1518 1518 1517 1516 1514 1513 1510 1508 1505
1477 1488 1490 1490 1487 1492 1491 1491 1494 1498 1498 1503 1497 1493 1485 1481 1480 1479 1479 1479 1480 1482 1484 1486 1488 1491 1495 1499 1503 1506 1509 1511 1512 1513 1514 1514 1514 1513 1511 1510 1508 1505 1502 1499
1477 1484 1486 1486 1485 1487 1487 1486 1489 1490 1490 1492 1490 1486 1476 1476 1476 1476 1476 1477 1478 1479 1480 1482 1485 1488 1492 1495 1499 1503 1505 1508 1509 1510 1510 1510 1509 1508 1506 1505 1502 1499 1496 1492
1477 1482 1489 1493 1485 1486 1491 1483 1483 1483 1481 1482 1484 1476 1472 1474 1474 1474 1474 1474 1475 1476 1478 1480 1482 1485 1488 1493 1497 1500 1502 1504 1505 1506 1506 1506 1505 1503 1501 1499 1496 1493 1489 1485
1475 1481 1489 1493 1491 1497 1482 1471 1472 1474 1472 1472 1471 1469 1468 1469 1470 1471 1472 1473 1474 1475 1476 1478 1480 1483 1487 1491 1494 1497 1499 1501 1501 1502 1502 1501 1499 1498 1495 1493 1490 1486 1482 1478
1469 1477 1488 1496 1495 1489 1478 1469 1468 1472 1471 1466 1466 1466 1467 1468 1470 1471 1471 1472 1473 1474 1475 1476 1479 1482 1485 1489 1492 1494 1496 1497 1497 1497 1497 1496 1494 1492 1489 1486 1483 1479 1474 1470
1471 1473 1485 1493 1492 1491 1474 1463 1462 1467 1470 1461 1461 1463 1466 1468 1474 1471 1469 1470 1471 1472 1474 1476 1478 1481 1484 1487 1489 1491 1492 1493 1493 1493 1492 1490 1488 1486 1483 1479 1475 1471 1467 1462
1475 1478 1483 1487 1487 1480 1464 1460 1463 1474 1467 1458 1458 1460 1463 1465 1467 1467 1468 1469 1471 1472 1473 1476 1478 1480 1483 1485 1487 1488 1488 1489 1489 1488 1487 1485 1483 1480 1476 1472 1468 1464 1459 1453
1467 1475 1480 1483 1485 1478 1456 1459 1462 1459 1456 1456 1458 1459 1461 1463 1464 1465 1466 1468 1469 1471 1473 1475 1477 1479 1481 1483 1484 1484 1485 1485 1484 1483 1481 1479 1476 1473 1469 1465 1460 1456 1451 1445
1458 1457 1460 1462 1461 1451 1450 1450 1451 1452 1454 1455 1457 1459 1460 1461 1462 1463 1465 1467 1468 1470 1472 1474 1476 1478 1479 1480 1481 1481 1481 1480 1479 1477 1475 1472 1469 1466 1462 1457 1452 1447 1443 1437
1451 1449 1453 1455 1451 1447 1447 1448 1449 1451 1453 1454 1456 1457 1459 1459 1461 1462 1464 1465 1467 1469 1471 1473 1474 1476 1476 1477 1478 1477 1477 1475 1473 1471 1468 1465 1461 1458 1454 1450 1445 1440 1434 1429
1441 1445 1448 1449 1445 1444 1444 1445 1447 1449 1451 1453 1454 1455 1456 1458 1459 1460 1462 1464 1466 1468 1469 1471 1472 1473 1474 1474 1474 1473 1472 1469 1467 1464 1461 1458 1454 1450 1445 1441 1437 1432 1427 1423
1436 1438 1441 1441 1438 1440 1440 1442 1445 1447 1448 1450 1452 1453 1454 1456 1457 1458 1460 1462 1464 1466 1467 1469 1470 1470 1471 1470 1470 1469 1466 1464 1460 1457 1454 1450 1446 1441 1437 1432 1426 1422 1419 1414